GFSFLT1_sfc_wetblb_120.txt.gz
Wetbulb
73.92 73.38 73.27 73.20 72.80 72.81 72.56 71.82 71.29 70.73 69.96 69.25 68.95 68.35 68.18 67.82 67.73 68.06 68.29 68.28 68.63 68.71 68.27 68.42 68.20 68.16 67.99 67.75 67.61 67.34 67.52 67.09 67.14
73.54 72.82 72.86 72.83 72.77 72.59 72.19 71.52 70.90 69.95 69.00 68.43 68.07 67.04 67.32 67.11 67.71 67.89 67.97 68.28 68.63 68.61 68.28 68.37 67.84 67.91 67.64 67.58 67.40 67.07 66.98 67.01 67.21
73.04 72.76 72.73 72.83 72.90 72.54 72.11 71.16 70.38 69.25 68.06 67.65 67.19 66.56 66.66 66.78 67.62 67.77 67.93 68.67 68.37 68.33 68.04 67.83 67.57 67.58 67.10 67.28 67.00 66.80 66.68 66.36 66.10
72.78 72.46 72.58 72.75 72.29 72.18 71.85 70.47 69.26 68.12 67.56 67.17 66.47 65.74 66.17 66.94 67.14 66.84 67.48 68.32 68.06 67.95 67.62 67.31 67.22 67.08 66.78 66.61 66.47 66.48 66.02 66.02 65.92
71.62 71.01 71.30 71.89 71.63 71.46 70.87 69.85 68.26 67.36 67.01 66.51 65.81 65.30 65.41 66.74 67.03 66.99 67.50 68.25 67.71 67.36 67.09 66.78 66.65 66.37 66.14 65.94 65.91 65.71 65.53 65.30 65.21
70.77 68.63 69.48 70.90 71.45 71.06 70.39 68.92 67.64 67.18 66.43 65.71 64.88 64.62 65.78 66.18 66.70 66.71 67.72 67.46 67.20 66.87 66.54 66.16 65.95 65.70 65.44 65.33 65.12 64.96 64.84 64.68 64.68
69.12 68.46 68.22 70.17 70.06 69.77 69.29 67.69 66.64 65.28 64.33 64.41 63.58 65.20 65.72 66.06 66.51 66.77 67.73 66.75 66.76 66.53 65.90 65.55 65.31 65.12 64.81 64.72 64.46 64.34 64.09 63.93 63.78
69.42 70.41 69.35 70.13 67.54 68.99 67.91 66.05 66.53 65.25 64.39 64.19 64.69 65.16 65.52 66.06 66.38 66.36 67.29 66.44 66.20 66.00 65.66 65.16 65.07 64.68 64.44 64.15 63.88 63.57 63.22 62.93 62.82
67.76 69.32 68.82 68.73 68.70 67.92 67.07 66.36 66.76 66.38 65.68 65.11 64.53 65.03 65.26 65.69 66.44 65.91 65.97 66.85 66.13 65.72 65.33 64.98 64.54 64.37 63.98 63.53 63.16 62.76 62.39 62.17 61.87
67.45 68.35 68.76 68.06 68.14 67.22 66.16 66.20 66.41 66.34 66.22 66.29 65.63 65.50 65.66 65.78 66.42 66.60 64.28 66.32 66.25 65.67 65.43 65.08 64.73 64.24 63.88 63.28 62.60 62.12 61.73 61.35 61.07
67.46 66.94 68.18 67.68 67.20 66.61 66.12 66.14 66.37 66.34 66.44 66.16 66.34 66.06 66.00 66.05 66.12 66.84 66.02 65.22 66.39 65.92 65.91 65.57 65.23 64.76 64.25 63.57 62.65 62.05 61.48 60.90 60.51
66.34 66.21 67.57 67.68 67.11 66.39 66.02 66.12 66.55 66.25 66.23 66.10 66.01 66.32 66.33 66.02 66.06 66.40 66.73 65.87 64.13 66.10 66.46 66.38 65.92 65.40 64.68 64.19 63.33 62.45 61.97 61.29 60.65
66.43 67.75 67.61 67.97 67.30 66.05 65.32 65.24 65.38 65.53 65.41 65.31 65.40 65.69 65.91 65.97 65.96 65.93 66.34 66.34 66.30 64.92 66.20 67.22 66.53 66.14 65.51 65.44 64.66 64.06 63.12 62.33 61.72
65.94 66.78 67.60 67.67 66.76 65.64 64.40 64.57 64.96 64.66 64.64 64.74 64.74 64.59 64.70 65.18 64.98 65.43 65.74 66.16 66.12 66.49 64.45 64.50 65.59 66.60 66.46 66.41 66.74 65.94 64.82 63.82 63.20
67.14 66.58 66.62 66.78 65.99 65.03 64.11 63.70 64.44 64.47 64.67 62.76 62.45 63.50 63.52 63.86 64.23 64.34 64.92 65.63 65.86 66.16 66.33 65.76 64.93 63.84 66.40 66.84 66.97 67.32 66.65 65.77 64.86
66.96 67.21 66.76 66.07 65.11 64.49 63.69 63.61 63.46 63.39 64.13 63.04 62.98 63.66 64.95 64.50 64.45 64.47 64.13 64.15 64.68 65.36 65.64 66.06 66.12 65.57 64.49 66.02 66.64 66.97 66.99 66.12 65.96
66.00 65.69 65.68 65.25 64.23 63.69 63.32 63.16 62.54 63.03 64.00 62.58 62.61 60.43 62.51 63.70 64.18 64.77 63.98 63.79 64.18 63.67 64.48 65.13 65.57 65.74 65.92 64.95 64.71 65.71 66.48 66.62 66.39
65.72 65.46 64.86 64.63 64.16 62.89 62.82 63.03 62.68 61.76 63.23 64.28 62.96 60.14 58.65 60.06 62.84 63.11 63.67 63.27 62.81 61.45 63.30 63.99 64.12 64.61 65.22 64.05 62.38 61.70 61.98 63.11 64.48
65.70 65.29 64.65 64.18 63.79 62.94 62.82 63.10 63.86 64.25 63.50 63.68 63.44 63.88 62.60 59.60 58.83 62.79 62.86 62.84 59.84 59.84 60.66 60.91 62.28 62.91 63.78 61.79 58.73 58.31 58.21 59.93 62.12
65.58 65.66 65.36 64.72 64.12 63.95 63.78 63.73 64.15 64.88 63.77 63.80 63.34 63.46 62.68 62.91 60.07 57.74 60.20 61.35 57.51 58.27 58.90 60.45 59.81 60.36 58.44 57.28 55.77 54.61 55.05 57.87 60.04

GFSFLT1_sfc_wetblb_123.txt.gz
Wetbulb
74.19 73.50 73.44 73.08 72.64 72.62 72.79 71.93 70.69 70.36 70.17 69.86 69.21 68.20 68.82 68.63 67.31 67.51 68.02 67.49 68.59 68.91 68.57 68.49 68.28 68.23 67.88 67.65 67.56 67.48 67.77 67.26 67.21
73.83 73.07 73.20 73.03 72.54 72.45 72.06 71.02 70.32 69.61 68.93 68.71 67.97 67.06 67.33 66.99 66.90 67.24 67.42 67.63 68.72 68.89 68.47 68.42 68.14 67.95 67.83 67.47 67.22 67.32 67.17 66.86 66.84
73.47 73.15 72.94 72.82 72.27 72.08 71.58 70.40 69.75 68.83 68.19 67.78 66.99 67.06 66.98 66.80 66.85 67.64 67.52 68.73 68.56 68.66 67.91 67.80 67.58 67.64 67.38 67.07 66.99 66.68 66.52 66.40 66.52
72.82 72.50 72.78 72.75 72.26 71.80 71.30 69.89 68.91 67.99 67.72 67.18 66.39 66.16 66.30 66.56 66.54 66.70 66.81 67.76 68.42 68.10 67.68 67.67 67.35 67.35 67.09 66.84 66.43 66.39 66.32 65.91 65.78
71.41 71.14 71.81 72.20 71.66 71.32 70.62 69.39 68.03 67.55 67.22 66.70 66.05 65.73 65.85 66.38 66.58 66.56 66.76 68.61 67.98 67.63 67.14 67.11 66.88 66.73 66.38 66.30 65.94 65.78 65.60 65.55 65.28
70.47 68.75 70.00 70.95 71.09 70.63 70.00 68.58 67.70 67.33 66.60 66.16 65.89 65.29 65.84 66.15 65.97 66.18 67.97 67.84 67.40 67.20 66.55 66.43 66.16 65.98 65.70 65.43 65.16 65.04 64.95 64.98 64.79
69.62 68.43 68.89 70.28 69.86 69.35 68.77 67.70 66.82 65.06 63.72 63.93 64.20 65.25 65.55 65.99 65.92 65.88 67.88 67.21 67.04 66.56 66.12 65.67 65.47 65.24 65.12 64.80 64.61 64.42 64.24 64.10 63.88
69.39 70.14 70.15 70.04 67.14 67.72 66.21 64.93 63.92 63.13 62.57 62.94 64.59 65.01 65.36 65.60 65.72 66.04 67.40 66.99 66.69 66.32 65.79 65.47 65.09 64.83 64.53 64.25 63.92 63.58 63.32 63.17 62.95
67.84 68.74 68.92 69.40 68.64 66.70 64.31 64.56 64.82 63.97 63.88 64.21 64.24 64.46 64.87 65.42 65.84 65.41 66.38 67.04 66.32 66.20 65.72 65.13 64.91 64.42 64.09 63.66 63.25 62.87 62.50 62.23 62.06
67.05 67.92 68.64 68.74 68.17 66.58 65.13 65.61 65.56 64.85 64.52 64.21 64.28 64.39 64.68 65.09 65.70 65.43 64.65 66.58 66.67 66.07 65.84 65.48 64.97 64.58 64.04 63.33 62.73 62.19 61.78 61.40 61.07
66.93 67.78 67.66 67.45 67.65 67.01 65.83 65.48 65.51 65.35 65.42 65.06 65.12 65.08 65.30 65.25 65.64 65.70 64.91 65.53 66.62 66.27 66.17 65.91 65.54 65.07 64.64 63.78 62.95 62.26 61.68 61.19 60.76
68.64 68.16 67.37 67.22 67.12 65.89 65.71 65.92 66.02 65.43 65.64 65.31 65.51 65.47 65.34 65.41 65.37 65.67 65.91 64.73 64.51 66.45 66.61 66.46 66.17 65.72 65.26 64.79 63.76 62.99 62.47 61.86 61.20
67.74 67.33 66.93 67.02 66.65 65.93 65.37 65.50 65.22 65.26 65.03 64.93 65.04 65.32 65.65 65.53 65.42 65.61 65.62 66.20 65.45 64.59 66.48 67.47 66.88 66.41 65.99 65.67 65.26 64.53 63.51 62.92 62.41
66.87 66.49 66.95 67.01 66.29 65.57 64.93 64.93 65.06 64.80 64.67 64.69 64.75 64.89 65.08 65.23 65.16 65.11 65.31 65.83 66.05 66.26 64.04 64.75 65.89 66.79 66.82 66.36 66.65 66.20 65.22 64.32 63.71
67.34 67.75 67.72 66.99 66.15 65.03 64.50 64.02 65.03 64.69 64.25 63.07 62.92 64.14 64.42 64.79 64.74 64.39 64.75 65.32 65.79 65.82 66.28 64.50 64.26 63.93 66.50 67.09 67.13 67.43 67.30 66.07 65.23
65.92 66.79 66.95 66.70 65.51 64.85 64.17 63.68 63.33 63.64 65.20 63.09 62.84 63.40 64.23 63.99 64.24 64.57 63.79 64.38 64.89 65.20 65.20 65.41 65.70 64.52 64.59 66.16 66.84 67.22 67.35 66.56 66.20
65.69 66.05 65.37 64.80 65.20 64.76 63.96 63.24 62.57 63.26 64.15 62.15 63.20 60.18 62.24 63.30 64.40 65.10 64.49 64.24 64.63 64.00 64.24 64.37 64.71 65.26 65.50 64.45 64.74 65.86 66.43 66.89 66.80
65.31 65.74 65.29 65.68 65.40 64.18 63.87 63.45 63.32 61.59 63.46 63.95 62.83 59.43 58.37 60.41 62.23 63.08 63.68 63.45 63.51 63.96 63.65 62.82 63.25 64.37 63.08 64.06 63.16 62.37 62.77 63.54 64.84
65.97 66.04 65.94 65.43 64.94 63.84 63.76 63.75 63.59 64.13 62.64 63.76 63.75 64.62 63.01 58.72 58.18 62.25 63.02 63.38 62.09 62.24 62.02 61.06 60.52 62.62 63.48 61.26 56.96 57.69 58.04 59.66 62.01
65.72 65.71 65.28 64.71 64.35 64.25 63.76 63.38 63.51 64.38 64.57 64.27 63.18 63.69 63.08 62.65 60.15 57.81 60.21 61.68 60.63 59.06 58.42 59.71 61.72 61.76 59.79 58.29 55.66 55.04 55.27 57.70 59.68

GFSFLT1_sfc_wetblb_126.txt.gz
Wetbulb
74.17 73.24 73.37 72.97 72.73 72.68 72.48 71.63 71.07 70.64 70.48 69.97 68.81 68.71 68.45 67.34 63.86 64.31 66.99 64.84 69.14 69.16 68.19 68.09 68.06 67.81 67.83 68.06 68.59 67.55 67.64 67.76 67.65
73.84 73.30 73.15 72.84 72.66 72.79 71.52 70.68 70.00 70.04 69.67 69.03 68.14 67.48 66.94 63.63 63.31 63.77 64.34 65.33 69.02 69.06 68.53 68.10 68.19 68.12 67.93 68.08 67.45 67.17 67.15 67.45 66.46
73.33 73.22 72.92 72.69 72.66 72.25 71.20 70.12 69.56 68.81 68.39 67.94 67.23 67.16 66.92 65.13 64.48 64.33 64.02 67.70 68.40 68.58 67.87 67.90 67.69 67.42 67.46 66.85 66.83 66.83 66.43 66.29 66.19
73.25 72.92 72.81 72.51 72.08 71.77 70.59 69.51 68.65 68.10 67.55 67.36 66.67 66.21 66.06 63.76 64.52 65.43 64.03 67.24 68.30 68.12 67.41 67.41 67.23 67.02 66.78 66.58 66.45 66.40 65.93 65.92 65.83
71.56 71.12 71.72 71.83 71.59 70.99 69.37 69.06 68.05 67.64 67.21 66.90 66.39 65.75 65.45 62.50 64.19 64.39 64.90 68.96 68.20 67.91 67.55 67.25 67.12 66.82 66.62 66.27 66.02 65.81 65.76 65.58 65.54
69.55 69.22 69.85 70.66 70.83 70.45 69.72 68.50 67.69 67.39 66.53 66.44 66.05 65.00 61.80 62.44 63.74 63.81 67.92 68.13 67.69 67.21 66.97 66.52 66.43 66.15 65.84 65.55 65.40 65.20 65.23 65.06 64.89
69.06 68.19 68.86 70.03 69.49 69.10 68.75 67.83 66.99 64.48 61.82 61.60 64.07 61.27 61.36 62.49 63.45 63.99 67.85 67.76 67.25 66.75 66.30 65.98 65.76 65.56 65.25 65.00 64.78 64.61 64.41 64.20 64.05
68.91 68.97 68.85 67.72 65.91 66.28 66.06 65.21 62.06 58.73 58.64 59.37 59.76 60.11 61.31 62.16 62.81 65.18 67.35 67.41 66.93 66.52 66.01 65.54 65.24 65.14 64.83 64.54 64.13 63.76 63.52 63.34 63.23
67.81 68.29 67.82 66.64 65.55 63.00 60.67 59.54 59.53 58.11 58.09 57.84 59.14 59.96 60.42 62.71 63.19 63.92 65.73 67.32 66.62 66.36 65.88 65.58 65.12 64.76 64.37 63.94 63.53 63.02 62.69 62.45 62.24
67.43 66.97 67.24 66.53 64.85 61.33 58.41 58.97 59.41 58.64 58.59 59.41 59.65 60.14 60.09 61.85 63.06 62.24 64.18 66.14 66.91 66.35 66.02 65.54 65.21 64.70 64.15 63.61 63.03 62.50 62.02 61.69 61.37
66.25 65.57 66.22 65.98 64.14 62.16 60.22 60.77 60.67 59.93 59.49 59.36 60.50 60.33 60.78 60.99 62.12 62.51 62.61 65.15 66.41 66.40 66.14 65.99 65.56 65.15 64.66 63.91 63.01 62.39 61.90 61.48 60.91
65.77 65.08 65.45 64.58 63.98 62.11 61.09 61.34 61.37 60.58 61.29 60.25 60.63 60.87 60.67 61.07 61.37 61.70 62.22 63.39 64.23 66.22 66.57 66.36 66.12 65.72 65.44 64.94 63.90 63.14 62.64 62.02 61.44
65.49 64.35 64.28 63.08 63.30 61.08 60.66 60.85 60.49 60.38 60.61 60.15 60.47 60.80 60.99 60.87 61.13 61.69 61.89 62.36 63.23 64.31 66.39 67.40 66.82 66.51 66.21 65.90 65.64 64.90 63.97 63.35 62.89
66.01 65.15 63.09 62.84 61.57 60.59 61.05 60.66 60.72 59.94 59.91 60.48 60.12 60.20 60.47 60.97 61.94 61.09 61.41 61.79 62.05 61.99 63.66 64.56 65.65 66.70 67.04 66.56 66.67 66.31 65.78 64.78 64.26
66.11 65.17 63.37 62.74 61.32 60.69 60.28 60.17 60.42 60.40 59.89 60.76 60.19 59.74 59.81 60.31 60.26 60.47 61.73 61.28 62.27 62.27 62.27 61.99 62.84 64.01 66.45 67.12 67.26 67.44 67.66 66.79 65.89
64.98 65.06 63.80 63.60 61.26 60.14 59.95 59.71 59.18 58.97 59.85 58.13 57.71 58.31 59.40 59.31 59.45 60.27 59.94 60.47 61.42 61.78 61.82 61.68 61.76 62.37 64.47 66.33 67.19 67.42 67.58 67.17 66.70
64.60 64.77 64.10 63.42 61.80 60.40 59.19 59.32 58.50 59.47 59.61 57.39 58.19 56.03 58.37 59.84 60.70 60.66 60.39 60.15 60.33 60.22 60.98 61.05 61.10 61.24 62.70 62.98 65.06 66.46 66.86 66.90 66.78
64.92 65.25 65.03 63.71 62.17 60.41 59.03 59.08 58.95 58.04 59.04 59.92 58.83 55.05 54.01 56.11 58.39 59.12 59.53 59.34 59.02 59.47 59.63 59.59 59.89 60.07 60.81 62.60 61.36 62.16 62.65 62.82 64.33
63.58 63.35 63.32 62.17 61.66 60.57 59.76 60.81 59.97 60.04 58.72 59.69 61.34 60.46 59.33 55.29 55.07 58.78 60.12 59.26 58.18 57.99 58.23 58.26 58.23 58.68 59.58 57.36 57.26 58.25 59.08 60.15 62.22
64.58 64.00 62.75 61.93 61.22 60.72 60.18 60.11 60.05 61.20 61.17 60.25 59.68 59.62 59.01 59.10 56.71 54.37 56.27 57.82 56.61 55.92 55.57 56.03 58.81 58.24 57.71 56.74 56.13 56.92 57.24 58.77 61.04

GFSFLT1_sfc_wetblb_129.txt.gz
Wetbulb
73.87 73.54 73.32 72.92 72.69 73.03 72.88 72.43 71.86 71.30 71.27 70.84 69.19 69.76 68.85 66.55 64.00 64.01 66.70 65.44 68.39 68.61 68.74 68.03 67.95 68.39 68.82 67.67 67.75 67.95 67.64 66.86 66.87
73.70 73.45 73.12 72.75 72.57 72.57 72.03 71.38 70.73 70.52 70.48 69.19 68.40 68.25 66.99 63.43 62.79 63.01 64.75 66.31 69.26 69.09 68.95 68.51 67.90 67.71 67.52 67.42 67.49 67.24 66.93 66.66 67.18
73.60 73.28 72.87 72.52 72.55 71.79 70.49 70.12 70.02 69.64 69.13 68.42 67.60 67.82 66.40 64.56 63.13 62.87 64.85 68.68 68.94 68.67 68.32 67.63 67.81 67.10 67.19 67.13 66.73 66.56 66.42 66.18 66.40
73.58 72.92 72.68 72.37 72.26 71.06 69.57 69.66 68.94 68.45 68.32 67.68 67.21 67.12 66.24 63.44 63.68 64.09 63.76 67.91 68.38 67.97 67.75 67.25 67.07 66.87 66.90 66.70 66.51 66.26 66.10 65.76 66.02
72.41 71.37 71.58 71.71 71.35 69.91 69.52 68.93 68.04 68.07 67.97 67.47 66.30 65.97 65.01 62.04 62.98 63.00 65.05 69.02 68.42 67.69 67.64 67.25 67.16 66.87 66.51 66.16 66.06 65.84 65.67 65.50 65.25
69.99 69.54 69.75 70.67 70.46 69.61 69.28 68.29 67.88 67.63 66.55 66.25 65.23 63.40 62.60 62.92 62.98 63.60 68.16 68.22 68.01 67.59 67.11 66.81 66.52 66.21 65.85 65.61 65.38 65.29 65.02 64.91 64.96
69.53 68.22 68.68 70.05 69.40 68.99 68.82 67.84 67.27 64.44 61.54 61.37 63.18 60.06 61.10 62.63 62.73 64.09 67.96 68.04 67.53 67.02 66.48 66.18 65.91 65.59 65.30 65.04 64.84 64.67 64.41 64.28 64.31
68.78 68.95 68.78 67.87 65.99 66.46 66.16 65.20 60.80 59.02 58.90 59.02 58.79 59.04 61.35 62.07 62.63 65.20 67.55 67.52 67.14 66.66 66.15 65.74 65.49 65.21 64.83 64.49 64.14 63.85 63.65 63.41 63.36
68.37 68.48 67.88 66.17 65.10 63.73 62.24 59.81 58.24 57.41 57.64 57.56 57.67 58.93 61.27 61.74 62.18 63.77 65.83 67.47 66.63 66.60 66.06 65.53 65.16 64.74 64.35 63.87 63.43 63.04 62.70 62.48 62.31
67.94 67.18 66.91 65.08 64.05 61.58 58.92 57.59 57.65 55.89 55.99 56.43 57.84 59.83 60.43 61.52 62.33 61.98 63.84 66.26 67.03 66.36 66.11 65.76 65.24 64.79 64.22 63.71 63.05 62.46 62.04 61.67 61.37
67.02 66.43 65.94 64.57 62.91 59.32 57.68 57.16 57.15 56.45 56.28 56.95 58.53 58.84 60.34 61.02 61.45 61.55 62.77 65.12 66.52 66.69 66.51 66.10 65.84 65.42 64.84 64.13 63.28 62.62 62.07 61.67 61.23
66.52 66.34 65.61 64.25 62.41 58.77 57.75 58.72 58.63 57.76 58.07 58.12 59.01 59.15 58.66 60.36 61.01 61.68 61.56 63.33 64.13 66.22 66.73 66.63 66.36 66.02 65.80 65.23 64.21 63.41 62.86 62.53 62.05
66.13 65.83 65.40 63.68 62.39 59.96 59.28 59.38 58.70 58.38 58.56 57.90 58.57 59.15 59.48 59.51 60.17 60.70 61.48 62.00 62.96 64.43 66.62 67.29 66.91 66.54 66.32 65.84 65.92 65.44 64.32 63.81 63.41
65.60 65.72 65.01 62.47 62.14 60.29 60.28 58.82 59.00 58.37 58.36 58.98 58.70 58.91 59.04 59.22 60.48 59.92 60.68 61.02 61.40 61.82 63.64 64.57 65.60 66.68 67.10 66.97 66.62 66.37 66.28 65.32 64.68
65.26 65.17 63.33 62.74 61.35 59.43 59.43 59.38 59.22 59.01 58.97 59.98 58.74 58.58 59.08 59.46 59.25 59.64 60.74 60.69 61.35 61.11 61.20 61.80 62.72 64.02 66.78 67.28 67.49 67.41 67.69 67.09 66.51
65.77 64.41 62.50 62.11 60.97 59.93 60.32 58.81 58.94 58.28 58.17 56.85 56.42 57.22 57.87 58.08 58.44 59.04 59.26 59.61 60.83 60.72 60.83 60.75 61.16 62.20 64.49 66.37 67.24 67.61 67.73 67.33 66.75
65.70 64.44 62.60 61.53 60.11 59.30 58.99 58.67 57.48 58.27 57.73 55.94 55.75 54.16 56.99 58.16 58.33 58.83 58.99 58.86 59.60 59.69 60.45 60.16 60.76 60.73 60.73 61.69 64.79 66.47 67.11 66.92 66.84
65.45 64.68 63.76 61.54 61.28 59.73 58.96 58.57 58.30 57.04 57.35 59.18 57.40 53.84 53.29 55.39 57.35 58.82 59.56 59.05 58.38 58.42 58.54 58.44 58.56 58.69 59.52 61.27 61.13 62.30 64.18 63.95 64.35
65.00 64.45 63.84 62.31 61.55 60.17 58.58 59.13 58.53 58.49 57.13 58.58 60.43 58.82 57.34 53.82 53.88 57.51 57.87 58.23 58.15 57.18 57.26 57.22 57.64 58.16 59.37 57.84 57.72 58.91 60.12 61.06 62.44
64.38 64.16 63.36 62.38 61.98 60.76 59.60 59.04 59.27 59.19 58.57 58.34 58.33 58.21 57.76 57.40 55.11 53.47 55.78 57.61 56.28 55.83 55.04 54.44 55.74 56.83 57.62 56.37 56.13 57.10 59.01 60.94 62.03

GFSFLT1_sfc_wetblb_132.txt.gz
Wetbulb
73.13 73.72 73.16 72.66 73.09 72.91 72.61 72.55 72.18 71.88 71.10 70.64 70.33 68.95 68.09 66.26 63.55 63.45 66.26 64.13 68.94 68.90 68.40 68.68 69.07 67.89 67.99 67.90 67.14 67.45 67.22 67.03 67.40
73.85 73.46 72.79 72.81 72.66 72.86 72.38 72.18 71.09 70.68 70.49 69.07 69.22 68.37 66.94 62.68 62.21 62.55 64.77 66.67 69.09 68.88 68.02 68.42 68.08 67.55 67.57 67.51 66.85 66.76 66.83 66.96 66.77
73.76 73.23 72.77 72.63 72.67 72.54 72.05 71.44 70.67 69.76 69.33 68.51 68.91 67.59 66.13 63.68 62.55 62.35 64.77 68.51 69.24 68.45 68.08 67.79 67.33 67.44 67.15 66.72 66.78 66.35 66.29 66.16 66.46
73.42 72.86 72.62 72.38 71.87 70.66 70.18 70.54 70.17 69.21 68.43 68.16 68.41 67.24 65.74 62.23 62.20 63.11 63.24 67.22 68.76 67.70 67.68 67.11 67.26 67.19 66.81 66.62 66.24 66.05 65.90 65.96 65.58
72.49 71.33 71.59 71.78 71.00 70.13 70.37 69.70 68.89 69.07 68.75 68.28 67.76 66.34 65.06 61.74 62.12 62.31 64.89 68.85 68.18 67.86 67.45 67.33 66.94 66.68 66.27 66.11 65.80 65.72 65.67 65.41 65.04
69.96 69.40 69.74 70.62 70.18 69.75 69.73 69.04 68.82 68.20 66.82 66.58 66.15 64.50 61.92 61.65 62.54 63.53 67.96 68.35 67.93 67.52 67.03 66.77 66.34 66.00 65.69 65.55 65.43 65.12 65.03 64.91 64.96
69.82 68.17 68.48 69.73 68.73 68.52 69.07 68.35 67.83 64.90 61.49 61.70 62.73 60.53 61.20 61.88 62.39 63.67 68.00 68.06 67.58 66.92 66.51 66.14 65.86 65.52 65.26 65.04 64.84 64.55 64.34 64.32 64.30
69.09 68.88 68.55 67.57 65.67 66.71 66.17 65.10 61.35 59.79 59.02 58.46 58.65 60.10 60.61 61.29 62.54 65.05 67.57 67.65 67.20 66.68 66.21 65.86 65.47 65.27 64.82 64.47 64.16 63.88 63.61 63.46 63.37
68.25 68.55 68.28 66.54 65.79 64.13 62.65 59.35 58.02 58.29 57.88 57.60 58.06 59.70 60.51 60.97 61.98 63.80 66.00 67.55 66.80 66.62 66.12 65.67 65.33 64.99 64.56 64.08 63.55 63.10 62.82 62.43 62.31
68.19 67.73 67.35 65.76 64.31 63.06 59.50 57.37 56.49 56.31 56.27 56.48 58.73 59.62 60.20 60.81 61.62 61.57 63.96 66.40 67.03 66.46 66.31 65.87 65.52 64.97 64.52 63.89 63.13 62.55 62.21 61.89 61.40
67.73 67.12 66.49 64.29 63.42 60.97 58.38 56.73 55.44 55.09 54.80 55.22 58.00 59.29 60.37 60.81 60.73 61.11 62.41 65.19 66.66 66.50 66.56 66.36 65.91 65.50 64.89 64.06 63.30 62.74 62.25 61.93 61.41
67.24 66.13 65.56 63.98 62.08 57.67 55.95 56.14 55.91 54.67 55.49 55.87 57.32 59.11 59.40 60.32 60.66 61.11 61.09 62.93 64.10 66.35 66.78 66.68 66.41 66.16 65.91 65.46 64.56 63.72 63.22 62.78 62.33
66.76 65.91 65.33 63.85 61.00 56.62 56.29 56.98 56.13 55.30 55.69 56.15 57.30 58.31 59.08 59.49 59.93 60.88 60.99 61.63 62.58 64.20 66.58 67.33 66.98 66.66 66.59 66.69 65.97 65.62 64.71 64.10 63.71
66.39 66.08 65.24 63.27 60.85 56.08 56.67 56.99 57.31 56.22 56.31 57.28 57.26 57.29 58.02 58.96 60.33 59.45 60.02 60.63 61.43 61.76 63.43 64.56 65.47 66.67 67.06 67.21 67.09 66.44 66.46 65.89 65.12
66.11 65.63 65.01 63.19 60.63 56.70 57.52 58.22 57.60 57.50 58.00 58.89 57.89 57.45 57.83 58.07 58.29 58.82 60.35 59.94 60.65 60.80 61.02 61.75 62.61 63.77 66.55 67.29 67.53 67.72 67.49 67.27 66.67
65.15 65.25 64.47 63.43 60.56 57.97 58.55 58.20 57.80 56.88 57.30 56.19 55.61 56.48 57.27 57.73 58.08 58.34 58.48 59.27 60.53 60.49 60.72 60.53 60.78 61.70 64.33 66.17 66.98 67.40 67.66 67.26 66.54
64.87 64.68 63.40 62.97 60.88 58.59 58.95 58.33 56.91 57.15 57.31 55.28 54.62 53.08 55.69 57.21 57.06 57.06 57.87 57.50 58.54 59.63 60.13 60.10 60.41 60.06 60.14 60.74 63.77 65.54 66.69 66.65 66.34
64.73 64.35 63.40 62.85 61.26 58.88 59.39 59.41 58.09 57.36 56.14 57.88 56.20 52.66 52.48 54.78 56.39 57.54 57.93 57.95 57.35 57.54 57.79 57.76 57.95 57.85 58.57 59.88 60.23 61.67 63.54 64.02 64.31
64.69 63.65 62.88 62.18 61.28 60.08 59.68 60.27 58.93 58.35 56.90 57.41 59.51 57.54 55.87 52.51 52.51 56.13 56.78 57.11 56.97 56.57 56.83 56.76 57.20 57.50 57.57 57.80 57.56 59.06 60.79 62.14 63.07
64.48 63.59 62.21 61.56 61.39 60.24 59.83 58.53 59.25 59.73 58.03 57.82 57.75 57.44 56.41 55.60 53.80 52.13 54.48 56.17 55.73 55.70 54.82 53.54 54.79 55.74 55.63 55.02 56.26 58.30 60.79 61.52 62.06

GFSFLT1_sfc_wetblb_135.txt.gz
Wetbulb
73.49 73.61 72.94 72.74 72.61 72.55 72.38 72.03 71.54 71.72 71.43 70.37 69.22 68.89 67.95 65.79 62.78 63.47 66.04 64.21 68.51 68.61 68.81 67.79 68.23 68.49 66.98 67.64 67.63 67.15 66.75 67.10 67.25
73.65 73.25 72.74 73.04 72.62 72.38 72.19 71.26 70.38 70.61 71.13 70.31 68.86 68.41 66.56 62.25 61.88 61.87 62.57 65.61 68.28 68.83 68.93 67.33 67.65 68.03 66.74 66.73 67.27 67.03 66.91 66.70 66.35
73.61 73.01 72.49 72.83 72.70 72.44 72.17 70.88 69.79 69.31 70.44 69.35 68.60 67.46 65.72 63.05 61.68 62.24 65.80 69.20 68.83 68.53 67.76 67.36 66.89 66.81 66.96 66.31 66.12 66.56 65.72 66.14 66.21
73.25 72.61 72.41 72.27 72.50 72.10 71.75 71.02 69.70 68.77 69.21 69.03 68.12 67.06 65.43 61.71 61.68 63.93 63.35 67.86 68.22 67.88 67.30 67.37 66.93 66.32 66.23 65.89 65.63 66.02 65.65 65.58 65.38
72.49 71.28 71.35 71.70 71.32 70.90 71.02 70.84 69.82 68.63 69.28 68.75 67.64 66.24 64.89 61.20 61.31 62.18 63.82 68.11 67.87 67.45 67.05 66.85 66.64 66.26 65.88 65.49 65.31 65.37 65.06 65.12 64.92
69.83 69.37 69.55 70.45 70.49 70.48 70.54 70.20 69.64 68.01 67.93 67.62 66.47 64.24 61.23 60.73 62.09 63.00 67.19 67.81 67.69 67.15 66.65 66.58 66.15 65.87 65.66 65.42 65.17 65.02 64.74 64.91 64.61
70.00 68.05 68.41 69.81 69.23 69.51 69.66 69.26 68.34 64.08 62.11 63.59 63.83 60.97 60.54 61.36 62.08 63.20 67.78 67.88 67.50 67.06 66.38 65.98 65.68 65.37 65.03 64.82 64.61 64.36 64.20 64.32 64.09
68.86 68.81 68.67 67.45 65.22 67.05 66.43 65.31 62.03 59.57 59.23 59.40 59.64 60.02 60.22 60.87 62.08 64.54 67.40 67.79 67.11 66.78 66.27 65.75 65.42 65.04 64.67 64.25 63.98 63.69 63.49 63.46 63.25
68.53 68.62 67.73 66.14 65.92 64.25 62.38 59.84 59.06 58.43 57.79 58.30 59.27 59.76 60.37 60.43 61.58 63.31 65.96 67.61 66.83 66.60 66.21 65.69 65.19 64.82 64.33 63.91 63.37 62.97 62.73 62.41 62.17
68.39 68.23 67.44 66.07 64.83 63.81 60.54 57.66 57.55 56.90 56.32 57.33 59.57 59.78 59.80 60.28 61.17 61.44 63.84 66.26 67.14 66.50 66.23 65.92 65.43 64.92 64.41 63.92 63.11 62.55 62.20 61.85 61.45
67.84 67.63 67.02 65.75 64.75 62.96 60.06 57.10 55.89 55.82 55.37 55.21 58.79 59.46 59.76 59.90 60.11 60.54 62.12 65.12 66.49 66.57 66.57 66.30 65.95 65.48 65.09 64.38 63.44 62.89 62.33 62.08 61.71
67.67 67.00 66.53 65.21 63.92 60.96 57.23 55.58 54.62 54.24 54.23 54.33 58.16 58.96 59.04 59.79 59.62 60.11 60.47 62.51 64.04 66.28 66.64 66.69 66.54 66.27 66.09 65.64 64.83 63.86 63.33 63.12 62.91
67.66 66.47 65.94 64.86 62.27 59.51 56.91 55.36 54.07 53.51 53.66 54.37 56.73 58.21 58.83 58.80 59.17 60.07 60.16 60.88 61.94 63.79 66.39 67.45 67.03 66.76 66.80 66.42 66.36 65.89 65.07 64.60 64.16
67.25 66.41 65.90 64.17 61.24 57.67 56.26 54.94 55.07 53.56 53.88 55.42 56.11 57.03 57.85 58.46 59.89 58.97 59.32 60.00 60.85 60.90 62.75 64.19 65.26 66.66 67.09 67.24 67.06 66.52 66.63 66.47 65.70
66.78 65.91 65.11 63.75 60.80 56.14 55.33 55.59 55.69 54.84 54.85 57.21 56.52 56.09 56.90 57.75 58.31 58.44 59.56 59.58 60.37 60.55 60.64 60.68 61.88 63.29 66.12 67.02 67.49 67.71 67.62 67.37 66.69
66.32 65.81 64.96 64.15 61.13 56.45 55.38 55.78 55.92 55.28 55.96 55.40 55.00 55.64 56.47 56.82 57.26 58.04 58.26 58.88 59.56 59.57 59.68 59.57 59.90 60.89 63.35 65.25 66.46 67.22 67.60 67.37 66.90
64.88 65.73 64.96 63.85 62.02 57.90 55.21 57.07 55.72 55.70 56.95 54.67 53.93 52.34 54.57 56.04 56.51 56.88 57.64 57.59 58.21 58.90 59.54 59.55 59.73 59.64 59.71 60.15 62.67 64.09 65.32 66.04 65.86
62.78 65.54 65.03 63.65 62.54 58.58 55.42 58.04 57.75 55.87 55.57 56.44 54.86 51.14 51.54 53.45 55.89 55.84 56.19 56.51 56.26 56.71 57.00 57.29 57.44 57.38 57.84 59.12 59.51 61.50 63.12 63.91 64.32
62.33 65.37 64.94 63.66 62.70 59.91 56.52 59.17 59.07 57.97 56.53 55.02 57.67 55.87 55.12 52.76 52.26 55.40 56.11 57.09 56.22 55.73 56.12 55.67 56.34 56.73 56.64 57.09 57.36 59.26 61.70 63.03 63.52
63.02 65.21 64.41 63.34 62.45 60.20 57.90 59.14 59.19 59.51 58.14 57.89 56.29 55.93 55.19 54.39 52.98 51.16 53.54 55.00 54.89 54.69 54.15 53.36 54.20 54.91 54.73 54.02 55.83 59.25 61.48 61.92 61.92

GFSFLT1_sfc_wetblb_138.txt.gz
Wetbulb
73.52 73.70 73.12 72.91 72.83 72.89 72.26 72.19 70.97 71.12 70.79 69.36 69.36 68.89 67.83 65.22 62.57 63.39 66.86 64.01 68.28 68.71 68.48 68.91 67.84 67.13 68.05 68.19 67.04 67.03 66.79 66.27 66.34
73.40 73.25 73.01 72.84 72.74 72.22 72.28 71.49 71.00 71.39 70.53 69.24 69.16 68.32 66.36 62.10 61.28 61.64 62.74 65.50 69.55 68.78 68.33 68.12 67.97 66.70 67.02 67.00 66.60 66.78 66.49 66.10 66.22
73.70 73.27 72.97 72.79 72.56 72.25 71.73 70.56 70.25 71.15 70.49 68.97 68.79 67.23 65.46 62.45 61.12 61.80 65.31 67.48 69.09 67.64 67.82 67.48 66.68 66.67 66.36 66.12 66.47 66.22 65.96 65.68 65.63
73.55 72.91 72.88 72.66 72.39 71.98 71.30 70.63 70.04 71.11 70.21 69.04 68.17 66.91 65.12 61.25 62.17 63.94 64.85 68.59 68.46 67.46 66.92 67.00 66.73 66.15 65.88 65.92 66.14 65.27 65.88 65.17 65.50
72.47 71.30 71.80 72.16 71.83 71.52 70.87 70.45 69.80 70.27 69.92 68.83 67.71 66.13 64.64 60.96 61.65 61.55 64.67 67.39 67.58 66.95 66.86 66.61 66.34 66.01 65.56 65.31 65.48 65.20 65.45 64.99 65.35
70.05 69.30 69.92 71.01 71.22 71.23 71.05 70.36 69.33 68.87 68.21 67.73 66.66 64.26 60.71 60.28 61.46 62.40 66.75 67.64 67.45 66.89 66.77 66.44 66.31 65.96 65.58 65.31 65.13 65.01 65.22 64.93 65.14
70.20 67.77 68.46 70.13 69.79 70.06 70.65 69.94 68.00 65.61 63.75 64.03 64.27 60.67 59.87 60.93 61.68 62.60 66.96 67.63 67.43 67.07 66.61 66.06 65.77 65.40 65.05 64.72 64.51 64.43 64.46 64.43 64.16
68.90 68.72 68.24 67.61 66.11 67.58 67.17 66.35 61.36 60.57 61.00 60.55 59.90 59.57 59.38 60.43 61.58 63.64 67.33 67.93 67.38 67.02 66.35 65.81 65.44 65.04 64.61 64.21 63.98 63.74 63.58 63.55 63.25
68.83 68.87 68.30 65.70 65.70 64.54 63.00 61.64 59.21 59.00 59.56 59.36 59.15 59.19 59.76 60.06 61.06 62.27 65.83 67.78 67.07 66.74 66.29 65.78 65.25 64.94 64.48 64.00 63.48 63.06 62.79 62.53 62.31
68.54 68.39 67.64 65.51 64.50 64.11 61.60 59.84 58.59 57.45 57.80 58.55 59.66 59.38 59.46 59.76 60.67 61.19 63.66 66.21 67.46 66.65 66.33 66.04 65.65 65.18 64.62 64.04 63.35 62.74 62.35 62.03 61.70
68.10 67.99 67.12 65.63 65.20 64.02 61.70 59.37 58.00 56.87 56.38 57.51 59.20 59.28 59.48 59.49 59.71 60.29 61.33 64.98 66.47 66.71 66.57 66.38 66.13 65.69 65.19 64.65 63.74 62.95 62.66 62.56 62.25
68.09 67.68 67.06 66.18 65.22 63.31 58.77 56.50 56.06 55.27 55.29 55.36 58.30 58.78 58.70 59.27 59.31 59.64 59.98 61.95 63.88 66.08 66.78 66.74 66.55 66.34 65.90 65.53 65.04 64.32 63.78 63.63 63.57
68.10 67.33 66.93 66.32 64.87 62.17 58.75 56.15 55.18 54.73 53.60 53.53 56.73 58.22 58.52 58.42 58.42 59.05 59.35 60.01 61.42 63.31 66.11 67.13 67.00 66.91 66.81 66.30 66.94 66.69 65.92 65.35 65.01
67.92 67.39 67.06 65.86 64.05 61.16 58.11 55.50 56.15 54.73 52.52 53.99 56.04 57.37 57.82 58.12 59.33 58.31 58.60 59.03 60.20 60.17 62.08 63.52 64.73 66.30 67.07 67.43 67.43 67.44 67.32 67.19 66.57
67.82 67.21 66.71 65.30 63.35 60.28 56.95 55.56 54.73 55.05 53.28 55.82 55.77 56.18 56.91 57.30 57.42 57.79 58.99 58.81 59.41 59.78 59.77 59.86 60.76 62.82 65.26 66.65 67.37 67.76 67.65 67.40 66.97
66.71 66.84 65.91 64.92 62.72 59.92 56.87 55.27 55.11 54.02 54.97 54.62 54.38 55.24 55.80 55.98 56.96 57.61 57.55 57.98 58.73 58.73 59.19 59.06 59.33 59.90 62.60 64.14 65.61 66.68 67.18 67.19 66.88
66.62 66.38 65.37 64.45 62.85 60.01 56.66 55.37 54.49 54.82 56.29 53.90 53.31 51.71 53.96 55.35 56.22 56.41 57.20 57.27 58.05 58.39 58.89 58.76 58.90 58.93 59.07 59.38 61.91 62.87 64.48 65.71 65.92
63.25 66.05 65.41 64.47 63.54 59.82 56.22 55.67 55.09 55.03 55.23 55.60 54.18 50.02 50.69 52.21 54.64 55.09 55.72 56.40 55.95 56.07 56.69 57.39 57.73 57.23 57.09 58.49 58.96 61.28 63.04 64.39 64.64
62.15 63.01 65.59 64.45 63.77 61.50 57.24 56.80 56.33 56.52 54.93 54.60 56.17 54.66 53.86 51.92 50.64 53.99 54.59 55.38 55.28 55.22 55.35 55.44 55.84 56.05 56.25 56.99 57.27 59.47 61.90 63.23 63.51
61.87 61.85 62.97 64.42 63.99 62.35 58.48 57.12 57.07 57.55 56.83 56.60 55.33 54.54 53.63 52.57 51.61 50.06 52.13 53.29 53.93 54.11 54.30 53.91 54.12 54.77 54.64 54.23 56.02 59.43 61.76 62.06 62.04

GFSFLT1_sfc_wetblb_144.txt.gz
Wetbulb
73.22 73.51 73.56 73.83 73.46 73.53 73.04 72.61 71.42 71.34 70.91 69.89 69.44 68.70 67.91 68.09 68.26 68.78 69.19 67.44 68.57 69.34 68.09 68.53 68.63 67.82 67.76 67.26 67.20 66.74 66.53 66.91 67.12
73.33 73.29 73.32 73.46 73.34 73.15 72.16 71.40 70.65 70.85 70.60 69.61 69.24 67.97 67.50 68.44 67.94 67.78 68.39 68.51 68.44 68.17 67.64 67.25 67.51 67.72 67.20 67.40 66.36 66.19 66.60 66.43 66.35
73.14 73.37 73.48 73.32 73.05 72.45 71.83 71.06 70.38 70.45 70.16 69.27 68.56 67.24 66.70 67.18 67.83 68.00 69.08 69.17 68.57 68.46 66.83 67.36 67.08 67.05 66.89 66.90 66.50 66.00 65.92 66.38 66.30
73.43 72.91 72.95 73.27 72.79 72.15 71.86 71.65 70.78 70.41 69.96 69.08 67.95 66.78 66.32 67.34 67.46 67.49 68.92 68.14 68.45 67.56 67.24 66.52 66.27 66.83 66.69 65.66 65.69 65.79 66.00 65.72 65.74
72.64 71.56 72.13 72.27 72.21 71.74 71.62 71.70 71.16 70.57 70.13 68.75 67.62 65.96 65.64 67.58 67.70 67.59 68.22 69.05 67.38 67.14 67.07 66.64 66.45 66.23 65.97 65.76 65.32 65.55 65.73 65.43 65.30
72.29 69.70 70.23 71.04 71.71 71.51 71.14 71.30 70.82 69.56 68.67 67.97 66.63 65.11 66.71 67.42 67.51 67.36 68.03 68.80 67.95 67.24 67.06 66.59 66.32 66.05 65.65 65.36 65.18 65.11 65.17 64.97 64.83
71.28 69.13 68.84 70.58 70.56 70.41 70.75 71.04 69.93 68.15 67.98 67.27 65.55 66.40 66.74 67.23 67.24 67.33 67.46 68.10 67.74 67.51 66.93 66.52 66.26 65.86 65.29 64.93 64.66 64.54 64.40 64.02 63.90
72.03 72.40 71.15 72.13 67.95 70.84 69.94 69.59 69.24 68.33 67.51 67.03 66.60 65.84 66.63 67.24 66.90 66.98 67.29 68.40 67.74 67.51 66.85 66.36 65.91 65.52 65.01 64.55 64.18 63.81 63.71 63.50 63.11
70.25 70.08 71.92 70.73 70.86 70.33 69.50 68.76 68.18 68.33 67.34 66.91 66.43 65.80 65.89 66.55 66.81 66.74 65.96 68.24 67.53 67.30 66.97 66.29 65.85 65.41 65.01 64.48 64.03 63.54 63.23 62.98 62.79
71.00 70.19 71.61 71.20 70.43 70.09 69.29 69.39 68.14 67.54 66.90 66.21 66.14 65.85 65.62 65.85 66.25 67.00 64.48 66.53 68.11 67.13 67.00 66.61 66.16 65.75 65.24 64.76 64.20 63.65 63.26 63.23 62.90
71.24 70.34 69.75 70.48 70.40 69.86 69.36 69.08 68.06 66.86 66.68 65.69 66.16 65.71 65.43 65.70 65.75 66.25 66.55 65.39 66.83 67.63 66.99 66.81 66.36 66.36 66.05 65.64 65.01 64.22 63.87 63.91 63.86
70.73 71.00 70.22 69.03 70.09 69.33 68.96 68.77 68.26 66.46 65.90 65.09 65.80 65.75 65.58 65.67 65.45 65.74 66.21 66.14 64.36 66.57 67.11 66.75 66.37 66.25 66.24 66.33 66.16 65.71 65.46 65.33 64.95
71.16 70.85 70.63 70.43 68.58 68.71 67.61 67.66 66.93 65.57 64.65 64.25 65.09 65.31 65.70 65.79 65.57 65.26 65.51 65.93 65.79 65.13 66.47 67.28 66.90 66.78 66.72 67.08 67.54 67.57 66.93 66.62 66.30
69.69 69.71 69.92 69.41 68.92 67.47 67.09 65.89 64.28 63.53 63.35 63.39 64.45 65.02 65.18 65.49 65.05 64.93 64.56 65.18 65.54 65.62 64.39 64.45 65.14 66.31 67.15 67.74 67.92 68.12 68.09 67.47 67.32
68.85 69.63 68.45 69.13 67.24 66.43 66.08 66.04 64.61 62.26 62.16 61.46 62.46 64.27 64.95 65.41 65.03 64.75 64.12 64.12 64.90 65.27 65.27 65.10 64.40 63.09 65.27 66.53 67.31 67.64 67.63 67.55 67.36
64.52 67.43 67.56 68.17 66.93 65.96 65.58 65.78 63.65 61.28 61.20 60.62 60.64 62.17 63.64 64.13 64.47 64.87 64.58 63.61 63.83 64.28 64.62 65.11 65.26 64.89 63.58 64.66 65.53 66.38 66.80 66.89 66.99
63.12 65.75 67.95 67.59 66.46 65.71 64.58 64.07 61.62 61.08 61.57 57.64 59.07 56.65 59.24 61.56 62.93 63.94 63.81 63.95 64.38 63.91 64.12 64.89 65.39 65.96 66.10 65.10 63.66 64.08 64.88 65.84 66.37
62.23 63.68 66.16 66.69 66.32 65.00 64.01 63.30 60.95 60.27 60.25 59.43 57.57 55.25 54.51 58.17 61.97 62.63 63.25 63.32 63.67 64.31 64.64 64.74 65.30 65.70 65.82 64.49 63.27 61.11 62.05 64.37 65.87
61.06 62.06 63.98 65.58 66.88 64.94 64.43 62.94 62.16 60.59 56.71 57.95 59.18 61.11 60.38 55.97 55.80 61.20 62.26 63.04 62.78 63.95 64.46 64.49 64.99 65.20 65.36 62.68 59.68 60.11 61.92 64.42 65.43
60.41 61.46 62.44 64.89 66.12 66.15 64.08 62.49 60.82 60.60 57.85 57.07 57.00 59.37 59.29 59.38 58.15 56.31 58.72 61.68 62.63 63.57 63.92 64.13 64.29 63.95 64.26 64.36 61.63 59.74 61.98 63.78 64.41

GFSFLT1_sfc_wetblb_147.txt.gz
Wetbulb
72.96 73.41 73.50 73.14 73.01 72.83 73.10 72.44 72.06 71.44 70.90 69.70 69.10 68.35 68.80 68.24 67.82 68.38 67.95 68.10 69.56 68.77 68.62 68.70 68.02 67.81 67.63 67.23 66.87 67.50 67.07 67.09 67.05
73.52 73.18 73.07 73.34 73.40 72.43 72.42 71.88 71.19 70.80 70.81 69.60 68.86 68.43 68.59 67.90 67.55 67.67 67.42 69.01 68.56 67.64 67.32 67.86 67.68 67.79 67.37 66.57 66.79 66.71 66.60 66.46 66.26
73.21 72.94 72.96 73.43 72.98 72.38 71.96 71.02 70.33 70.37 70.25 69.43 68.55 68.17 67.10 66.75 67.10 68.27 67.33 68.73 68.43 67.69 67.86 67.42 67.36 66.93 67.27 66.77 66.31 65.77 66.65 66.40 66.22
73.16 73.17 73.13 73.41 72.59 72.04 71.93 71.30 70.58 70.19 69.93 69.28 68.22 67.14 66.80 66.78 67.10 68.51 67.03 68.70 67.84 67.39 66.86 66.49 66.64 66.90 65.98 65.79 65.93 66.21 65.94 65.83 65.68
72.92 71.87 72.31 72.70 72.29 71.77 71.42 71.33 70.85 70.52 70.10 69.01 67.84 66.32 66.09 67.04 66.80 67.50 66.68 68.75 67.42 67.17 66.53 66.51 66.56 66.28 65.80 65.36 65.87 65.86 65.80 65.67 65.62
71.45 69.94 70.18 71.56 71.72 71.64 71.68 71.48 70.84 69.76 68.77 68.07 66.75 65.50 65.90 66.70 66.85 67.09 68.19 68.52 66.78 66.76 66.74 66.57 66.31 65.88 65.56 65.36 64.94 65.04 65.24 65.22 64.94
69.70 68.58 68.97 70.75 70.76 70.75 71.21 71.02 70.13 68.18 67.57 66.59 65.43 65.35 65.70 66.38 66.58 66.87 67.64 67.98 67.55 67.12 66.69 66.31 66.01 65.81 65.26 64.93 64.58 64.50 64.35 64.00 63.94
70.18 72.07 71.17 71.58 67.91 70.71 69.99 69.92 69.35 67.97 67.23 65.97 65.13 64.84 65.30 66.21 66.45 66.25 67.02 68.27 67.72 67.80 66.85 66.30 66.01 65.62 65.17 64.67 64.30 63.94 63.83 63.55 63.23
70.47 70.71 71.69 70.59 70.63 70.06 69.66 69.00 68.62 67.95 67.45 66.07 65.16 64.69 64.88 65.94 66.34 65.72 65.97 67.39 68.30 67.81 67.13 66.52 66.13 65.66 65.27 64.79 64.31 63.76 63.53 63.41 63.20
71.52 70.34 70.74 71.21 70.58 70.29 69.24 68.28 68.07 67.60 67.40 66.27 65.07 64.75 64.40 64.99 66.03 66.70 64.34 66.51 68.33 67.86 67.03 66.93 66.50 66.09 65.68 65.14 64.61 64.04 63.83 63.78 63.75
70.45 70.21 70.22 70.53 70.82 70.67 69.70 68.65 67.73 67.39 67.17 65.93 64.83 64.87 64.92 64.61 65.35 65.82 65.43 65.56 66.85 68.32 67.18 67.14 66.90 66.73 66.54 66.03 65.47 64.95 64.51 64.44 64.47
70.57 69.92 69.93 70.88 70.46 70.04 69.01 68.77 67.95 66.87 66.79 65.61 64.59 64.91 64.58 64.49 64.50 65.20 65.89 65.50 64.56 66.66 67.52 66.98 66.95 66.87 66.78 66.49 65.96 65.76 65.95 65.90 65.73
70.10 69.53 70.13 70.52 69.75 70.21 68.90 67.59 66.94 66.06 65.98 65.15 64.23 64.39 64.65 64.34 64.67 64.84 64.91 65.72 65.56 65.06 66.72 67.69 67.73 66.59 66.74 67.02 67.21 67.46 67.60 67.54 66.98
67.97 69.88 69.71 70.08 69.44 69.13 68.91 68.08 67.36 65.99 64.70 63.42 63.58 63.98 64.28 64.57 64.67 64.40 64.24 64.77 65.26 65.44 64.30 64.66 65.45 66.30 67.04 67.13 67.73 67.97 68.64 68.35 67.78
65.48 68.62 69.92 69.38 68.29 68.60 67.89 67.21 67.01 66.71 65.03 62.78 62.10 63.24 64.10 64.74 64.74 64.35 64.22 64.04 64.63 64.95 65.15 64.49 64.02 63.33 65.71 66.94 67.74 68.05 67.90 68.20 67.87
62.25 66.86 68.63 69.25 67.71 67.33 67.03 66.39 65.30 64.95 64.57 62.05 61.47 62.15 63.47 63.57 64.23 64.68 64.18 63.46 63.49 64.18 64.14 64.39 64.37 63.54 63.93 65.39 66.29 66.95 67.33 67.41 67.19
61.29 62.76 66.33 68.33 67.92 66.92 66.21 65.49 64.23 63.79 63.40 60.25 59.37 56.42 58.98 61.56 63.15 63.81 63.40 63.25 63.26 62.65 63.18 63.52 63.86 64.46 64.44 63.46 63.98 65.24 65.96 66.53 66.64
60.78 61.05 62.48 67.34 67.86 66.55 65.85 65.15 63.96 61.81 61.19 61.62 59.07 55.18 54.65 57.91 60.64 61.81 62.54 62.77 62.97 63.17 63.07 62.85 63.65 64.33 64.87 64.36 63.04 62.36 63.78 64.87 65.79
60.57 61.54 62.18 62.64 66.44 65.83 64.99 65.07 64.43 62.62 59.40 60.04 61.03 61.23 60.62 55.76 55.27 59.12 60.87 62.31 61.89 62.69 63.18 63.41 63.76 64.28 64.58 62.97 61.29 60.40 61.38 63.47 65.40
60.18 60.71 60.75 61.76 63.06 65.64 65.67 64.40 63.71 62.91 60.16 59.71 58.35 58.79 58.81 59.77 58.25 54.36 57.13 60.12 61.55 62.24 62.88 63.41 64.02 64.32 64.33 64.06 62.18 59.85 61.66 63.85 65.48

GFSFLT1_sfc_wetblb_150.txt.gz
Wetbulb
72.92 73.36 73.30 73.07 72.67 72.79 72.64 72.26 72.02 70.81 70.87 69.46 68.64 68.49 69.22 67.95 65.09 65.47 68.86 66.57 69.09 68.44 68.66 68.22 67.98 68.10 67.35 67.29 67.85 67.20 66.87 67.30 67.02
73.58 72.74 73.21 72.97 73.02 72.63 72.42 72.18 71.60 70.54 70.76 69.15 68.62 69.35 68.34 66.01 65.30 63.97 66.17 66.12 68.18 67.98 68.69 67.95 68.50 67.32 66.85 67.07 66.82 66.90 66.63 66.12 66.26
73.52 72.84 73.20 73.37 73.17 72.62 72.48 71.71 70.52 70.32 70.23 68.94 68.96 68.55 67.20 65.05 64.66 65.82 65.94 67.96 67.83 67.69 67.86 67.49 67.18 67.53 67.00 66.50 66.14 66.56 66.64 66.42 65.68
73.39 72.72 73.16 73.51 73.19 72.65 71.98 71.39 70.73 70.29 70.12 69.50 68.59 67.18 66.50 63.85 64.51 66.34 65.59 68.17 67.61 67.68 66.71 66.34 67.00 66.34 65.93 66.14 66.52 66.05 66.03 66.09 66.18
72.22 71.58 72.06 73.02 72.71 72.12 71.66 71.30 71.20 70.61 70.25 69.34 67.70 66.08 65.79 62.18 63.38 65.81 65.24 69.05 67.21 66.96 66.23 66.18 66.47 65.97 65.98 65.58 65.99 66.08 65.80 65.77 65.68
70.13 70.00 70.07 71.59 71.88 71.73 71.51 71.17 70.69 69.73 68.67 68.20 66.78 65.33 62.54 62.00 62.89 63.36 68.22 69.11 67.20 66.94 66.39 66.50 66.16 65.79 65.41 65.30 65.32 65.36 65.27 65.19 64.83
70.09 68.39 68.60 70.84 70.72 70.74 71.20 70.97 70.02 68.06 66.35 65.23 65.33 62.27 61.74 61.65 62.64 64.02 68.29 68.30 67.15 67.04 66.99 66.50 66.13 65.74 65.17 64.89 64.67 64.58 64.36 63.94 63.66
68.13 68.23 68.81 69.71 67.28 69.40 69.66 69.25 67.93 66.18 64.57 63.55 62.19 61.78 60.94 61.21 62.46 65.13 67.84 69.00 67.76 67.20 67.22 66.74 66.38 65.96 65.30 64.67 64.34 64.04 63.85 63.56 63.19
68.60 68.90 69.23 69.34 69.21 68.64 68.15 67.85 67.45 66.35 65.23 62.82 61.61 61.40 60.53 61.27 62.46 63.93 65.80 68.27 68.66 67.50 67.55 66.93 66.50 66.06 65.51 65.01 64.58 64.11 63.63 63.56 63.56
68.49 68.45 69.22 68.85 69.10 68.50 67.83 67.24 66.74 66.17 64.98 63.23 62.35 61.35 59.79 61.17 62.22 62.58 63.81 65.99 68.48 68.22 67.13 67.03 66.86 66.34 65.92 65.44 65.09 64.59 64.18 64.05 64.14
68.84 68.29 68.60 68.92 68.77 68.62 68.09 67.17 66.32 65.72 64.97 62.95 61.26 60.53 60.29 60.11 61.10 62.69 62.66 65.07 66.64 68.43 67.58 67.49 67.17 66.83 66.76 66.45 65.78 65.42 65.15 65.00 64.97
69.48 68.97 68.43 68.72 68.84 68.11 68.00 66.97 66.39 64.94 65.11 62.69 61.62 60.40 60.50 60.39 60.40 62.16 62.46 63.59 64.30 66.62 68.19 67.54 67.44 67.23 67.11 67.02 66.64 66.16 66.09 66.24 66.25
66.78 68.72 68.39 68.64 68.50 67.80 67.22 66.89 65.70 65.50 64.07 62.45 60.71 59.77 60.50 59.83 59.93 60.87 61.90 63.08 63.84 64.56 66.88 67.97 68.32 67.87 67.31 67.37 67.16 67.51 68.01 67.94 67.68
64.45 66.23 67.89 68.85 68.22 67.57 66.45 66.65 66.29 65.20 64.00 62.56 60.61 59.34 60.30 60.01 61.61 60.24 60.45 61.82 63.14 63.15 63.98 64.69 65.65 66.74 67.66 67.29 67.78 67.56 68.52 68.63 68.40
60.05 63.92 66.15 67.36 67.40 66.73 66.76 66.34 66.46 65.59 64.80 63.11 61.53 58.72 59.84 60.74 60.11 59.95 61.11 60.29 61.08 61.67 62.65 62.90 63.15 63.79 66.27 67.17 67.51 67.99 68.31 68.75 68.42
57.66 60.56 64.28 66.52 66.57 65.94 66.22 66.11 65.27 64.84 65.08 60.95 59.08 59.05 59.12 59.49 60.11 60.66 59.92 59.79 60.45 60.74 60.61 61.95 61.88 62.37 64.11 65.85 67.02 67.48 67.86 67.84 67.70
57.78 57.22 61.73 64.70 66.09 65.96 66.04 66.12 64.71 64.55 63.60 60.83 58.71 55.16 56.12 57.83 59.54 60.14 60.71 60.10 59.75 60.28 61.08 60.18 61.03 60.71 61.24 61.83 64.43 66.14 66.91 67.41 67.56
57.51 57.56 57.95 63.36 65.08 65.09 65.15 65.15 64.57 62.78 63.43 62.26 57.70 53.99 53.28 53.94 57.40 59.01 60.08 60.43 59.76 60.40 60.04 60.75 60.57 60.90 60.76 61.50 61.60 62.20 64.22 66.00 67.06
56.27 57.55 57.45 57.34 63.10 64.01 64.98 65.58 64.50 63.99 61.62 60.51 60.86 57.72 57.56 54.23 53.14 56.83 59.55 61.16 60.35 60.42 60.36 60.42 60.01 60.20 60.95 60.49 60.26 60.14 61.86 65.03 66.53
55.86 56.70 56.95 57.07 57.49 61.84 64.12 63.50 63.25 63.63 62.36 60.37 59.59 58.33 58.17 58.34 55.07 52.12 55.69 59.39 60.17 60.35 61.05 61.02 61.06 61.43 61.48 61.36 60.16 60.54 62.34 65.06 65.85

GFSFLT1_sfc_wetblb_153.txt.gz
Wetbulb
72.78 73.26 72.95 72.97 73.03 73.35 72.73 72.31 70.93 70.71 70.09 69.07 69.10 68.80 69.04 67.77 65.50 66.56 67.81 65.59 68.17 68.00 68.17 68.04 67.80 67.33 67.80 67.77 67.16 66.45 66.98 66.94 66.58
73.76 72.99 72.92 72.99 73.13 72.96 72.36 71.77 70.81 70.34 70.11 69.01 68.41 68.91 68.13 65.66 64.16 64.79 64.86 65.72 68.73 69.38 68.06 68.67 67.37 67.10 67.34 66.79 66.95 66.99 66.11 66.01 66.40
73.65 72.70 73.16 73.21 73.02 72.97 72.62 72.04 70.68 70.14 69.71 69.09 69.11 68.67 67.07 64.52 64.99 66.67 65.51 67.10 67.20 67.55 67.55 67.19 67.79 67.07 66.45 66.26 66.58 66.64 66.14 65.82 66.19
73.61 72.59 73.25 73.37 73.02 72.86 72.26 71.72 71.22 70.20 70.05 69.65 68.87 67.44 66.28 62.98 63.23 65.25 64.55 68.64 67.45 67.53 66.59 66.83 66.63 66.29 66.49 66.72 66.36 66.02 65.87 66.18 65.97
72.51 71.13 71.97 73.05 72.73 72.33 71.72 71.49 71.14 70.68 70.43 69.63 68.07 66.32 65.75 61.43 62.94 63.91 64.37 69.52 68.41 66.74 66.41 66.40 66.16 66.13 65.95 66.22 66.13 65.94 65.64 65.67 65.43
70.08 69.44 69.77 71.59 72.20 72.01 71.64 71.35 70.95 69.76 68.85 68.46 67.12 65.54 61.81 60.59 61.68 62.94 68.24 69.81 67.83 67.09 66.63 66.46 66.52 66.24 65.68 65.38 65.49 65.43 65.19 64.84 64.55
69.88 68.50 68.18 70.56 70.84 70.94 71.40 71.04 70.18 68.20 66.30 65.47 65.71 62.60 60.76 60.12 61.25 63.24 68.80 68.89 67.92 67.62 67.21 66.99 66.59 66.33 65.72 65.37 64.99 64.72 64.25 63.78 63.32
68.72 68.49 68.03 69.11 67.34 69.52 69.98 69.56 68.30 66.05 65.16 63.79 62.36 61.49 59.75 59.62 61.47 64.75 68.13 69.28 67.77 67.68 67.52 67.03 66.69 66.50 66.00 65.40 64.87 64.42 64.03 63.62 63.20
67.60 67.53 67.97 68.54 68.81 68.14 68.22 67.99 67.27 66.05 64.05 62.56 61.66 60.73 60.06 59.03 61.31 63.91 66.59 68.72 68.83 67.92 67.97 67.37 67.01 66.62 66.17 65.69 65.27 64.69 64.08 63.76 63.68
69.12 68.06 68.42 68.61 68.53 68.22 67.45 67.26 67.07 66.04 64.97 62.22 61.78 60.73 59.68 59.00 61.68 62.45 64.01 66.98 68.95 69.17 67.92 67.82 67.33 66.91 66.45 66.00 65.59 65.19 64.71 64.40 64.32
68.68 68.63 68.75 68.50 68.50 68.33 67.82 66.92 66.58 66.21 65.86 63.64 62.27 60.98 60.11 58.60 61.14 61.59 62.61 65.27 66.99 69.14 67.98 67.99 67.69 67.45 67.15 66.77 66.28 65.85 65.45 65.29 65.16
69.07 68.64 68.47 68.66 68.41 68.08 67.71 66.98 66.54 65.58 65.46 64.05 61.67 61.79 59.99 58.86 60.22 61.63 61.55 63.38 64.23 66.69 68.77 68.43 67.83 67.61 67.61 67.60 67.20 66.69 66.45 66.31 66.36
66.86 68.35 68.45 69.02 68.71 68.04 66.84 66.69 65.75 64.95 63.43 63.49 62.48 60.84 59.74 59.21 58.75 61.71 61.63 62.19 63.15 64.48 67.00 68.09 68.57 68.27 67.83 68.03 67.99 67.54 67.87 67.71 67.83
60.81 65.63 67.05 66.80 68.34 67.61 66.52 66.71 65.79 64.35 64.64 63.26 63.66 60.59 59.63 59.59 60.34 59.25 61.31 61.61 62.45 62.71 63.85 64.80 65.95 67.14 68.32 67.98 68.26 67.83 68.49 68.30 68.65
57.06 61.43 64.01 66.24 65.99 66.26 65.79 65.85 66.04 65.47 64.97 64.52 62.89 61.54 59.97 59.75 59.02 59.44 60.42 61.66 62.50 62.48 62.23 62.93 63.33 63.89 66.49 67.65 67.60 67.80 68.56 68.38 68.70
56.00 57.45 62.69 64.74 65.43 65.61 65.56 65.38 64.39 64.72 64.47 61.08 60.22 59.04 59.53 59.90 59.17 59.32 59.83 59.15 61.09 61.65 62.38 62.13 62.17 62.65 64.23 65.97 67.11 67.39 67.71 68.39 68.84
56.04 55.91 57.62 62.23 64.31 64.64 64.73 64.45 63.55 63.65 63.73 60.95 58.27 56.59 58.13 58.56 59.68 59.83 59.87 59.46 59.81 60.26 61.82 61.61 61.62 61.50 61.44 62.21 64.44 66.15 67.16 67.51 67.82
53.92 55.68 56.02 58.52 63.65 64.17 64.38 64.26 63.65 61.75 62.86 62.33 58.23 54.66 54.25 55.86 56.60 57.94 59.59 60.03 59.20 60.38 61.06 60.43 61.23 61.64 60.41 60.88 61.58 62.03 64.23 66.37 67.02
53.18 53.47 55.28 55.99 60.13 61.88 64.10 64.90 64.09 62.29 60.77 60.36 61.33 57.97 56.99 53.63 51.75 55.38 58.50 60.15 60.06 60.65 60.39 60.66 61.11 60.95 60.92 60.20 59.49 59.64 61.65 64.76 66.39
52.50 53.69 53.58 55.21 55.92 60.86 62.26 62.59 63.01 62.79 61.41 60.90 57.75 59.73 56.34 57.76 54.92 52.74 53.97 57.30 60.07 60.86 60.32 59.93 59.73 60.47 60.97 60.98 60.51 59.98 61.99 64.86 66.31

GFSFLT1_sfc_wetblb_156.txt.gz
Wetbulb
72.24 72.57 72.71 73.15 73.28 73.29 72.33 71.37 70.61 70.17 69.95 69.95 69.48 68.56 67.86 67.59 64.55 64.57 66.97 64.11 67.12 67.45 66.93 67.29 67.22 67.54 67.59 66.85 66.60 67.08 66.40 66.74 66.43
73.47 73.18 72.67 73.08 73.18 72.92 72.28 71.31 70.60 70.08 69.73 69.43 69.26 68.48 67.70 63.65 64.41 64.22 64.37 65.26 69.24 68.30 68.13 67.55 66.81 67.16 66.69 66.69 66.59 66.31 66.18 66.50 66.58
73.47 73.11 72.79 73.10 72.56 72.65 72.17 71.45 70.55 70.01 69.46 69.19 69.55 68.22 66.80 63.48 63.36 64.04 63.65 67.79 67.48 67.60 68.30 67.73 67.00 66.47 66.22 66.12 66.80 66.03 66.07 66.08 65.69
73.24 72.73 72.92 73.06 72.86 72.89 72.50 71.98 70.85 70.12 69.69 69.71 68.99 67.37 66.33 61.76 62.74 64.65 62.87 68.18 66.93 67.65 66.84 67.28 66.91 66.53 66.04 65.94 66.05 65.57 65.88 66.10 65.46
72.15 71.09 71.93 72.80 72.58 72.53 72.17 71.81 71.36 70.59 70.45 69.69 68.25 66.57 65.75 60.81 61.45 63.02 63.85 69.39 68.10 67.06 66.87 67.23 66.69 66.35 66.08 66.15 65.55 65.87 65.62 65.39 65.17
70.17 69.22 69.46 71.58 72.10 72.17 71.86 71.51 71.02 69.91 68.99 68.79 67.48 65.77 61.68 59.66 61.04 62.29 66.96 69.78 67.92 67.13 66.62 66.41 66.35 66.53 66.02 66.07 65.93 65.61 65.36 64.72 64.18
69.65 68.11 68.00 70.37 70.90 71.07 71.53 71.21 70.39 68.44 66.27 65.63 66.12 62.72 60.67 59.49 60.29 61.76 68.04 69.23 68.35 67.50 66.94 66.75 66.64 66.59 66.24 65.87 65.69 65.43 64.90 64.14 63.44
68.34 67.76 67.85 68.11 67.27 69.53 70.14 69.60 68.57 66.21 65.10 63.91 62.51 61.33 59.41 59.01 59.53 63.08 67.85 69.84 68.68 68.18 67.43 67.30 67.03 66.74 66.28 65.96 65.67 65.21 64.82 64.39 63.77
67.25 67.63 67.47 67.88 68.66 68.56 68.37 68.19 67.14 65.81 64.82 63.39 61.99 60.69 59.51 59.01 59.04 61.74 66.27 68.88 69.36 68.43 68.16 67.78 67.34 67.04 66.76 66.10 65.64 65.17 64.68 64.40 64.10
67.68 67.88 67.71 68.00 68.57 68.69 68.15 68.04 67.36 65.68 64.39 63.07 62.21 61.11 59.52 58.76 59.12 60.96 63.65 66.82 69.09 69.44 68.56 68.32 67.81 67.49 67.05 66.59 66.06 65.67 65.23 64.70 64.48
68.08 68.43 67.72 68.25 68.67 68.57 68.02 67.35 67.10 66.38 65.51 64.14 62.23 61.81 60.09 58.23 58.69 61.12 62.40 65.10 67.59 69.22 68.69 68.57 68.23 67.83 67.54 67.04 66.58 66.13 65.80 65.45 65.22
67.01 67.79 68.11 68.15 68.57 68.17 67.81 67.22 66.99 66.59 66.14 64.86 64.13 62.64 61.15 59.07 58.58 60.92 61.70 63.38 64.45 67.13 69.31 68.62 68.34 67.93 67.89 67.79 67.42 66.98 66.56 66.40 66.29
58.83 65.56 67.02 68.49 68.44 68.11 67.35 67.04 66.23 65.87 65.27 64.61 63.74 62.99 62.42 60.57 58.36 60.81 61.37 61.88 62.84 64.27 67.16 68.31 68.94 68.63 68.11 68.23 68.21 67.91 67.99 67.78 67.59
55.12 58.89 64.49 66.37 67.73 67.88 67.36 66.63 66.19 65.30 64.63 63.96 63.87 62.46 61.11 60.72 59.79 60.07 60.79 60.92 61.83 62.14 63.68 64.68 66.00 67.27 68.52 68.39 68.54 68.35 68.83 68.17 68.14
54.04 55.23 59.58 64.73 65.57 65.88 67.01 66.09 65.90 65.30 65.09 64.58 63.86 63.27 62.30 60.43 59.73 58.72 61.26 61.22 61.44 61.72 62.17 62.81 63.28 63.85 66.85 68.23 68.13 68.32 69.02 68.45 68.37
52.98 53.75 54.26 59.16 61.57 64.36 65.15 65.17 64.82 64.30 64.90 63.13 62.90 61.64 60.89 60.02 60.25 59.33 59.24 60.38 61.24 61.38 61.48 61.68 62.42 62.84 64.17 66.15 67.49 67.97 68.04 68.68 68.76
51.93 52.39 53.19 54.68 57.02 60.49 63.43 64.01 63.52 64.02 64.26 62.15 59.79 57.82 58.66 58.82 59.40 58.69 58.69 58.51 60.39 61.09 61.43 61.49 61.48 62.04 61.41 62.19 64.39 66.05 67.04 67.18 67.50
50.96 50.88 51.17 52.52 55.11 57.14 60.96 63.08 62.51 60.83 61.57 62.50 58.25 55.60 55.31 57.43 58.48 57.91 58.93 58.47 58.09 59.00 60.17 61.49 62.21 61.88 61.35 61.36 61.73 62.11 64.31 66.35 67.08
51.32 51.56 51.58 52.21 53.93 55.58 58.43 62.38 62.46 61.99 59.58 62.04 62.05 56.45 56.40 53.78 53.15 55.99 58.16 58.86 58.61 58.66 58.99 59.90 60.87 61.79 61.74 60.29 59.43 59.81 61.55 64.45 66.36
50.23 51.35 51.45 51.06 51.74 53.37 55.89 59.52 61.50 61.52 60.27 59.70 57.74 60.17 54.86 54.82 52.85 51.95 53.57 55.91 58.82 59.70 59.63 59.61 59.74 60.43 60.64 60.98 60.12 59.54 61.60 64.36 65.91

GFSFLT1_sfc_wetblb_159.txt.gz
Wetbulb
71.64 71.62 72.58 73.07 73.19 73.04 72.03 71.14 70.35 69.78 70.53 70.59 69.38 68.35 67.17 66.95 62.69 62.84 65.22 62.89 66.68 66.98 67.09 66.64 68.02 67.55 66.87 66.82 66.76 66.52 66.73 66.74 66.68
72.60 72.70 72.43 72.78 72.47 72.76 71.93 71.08 70.41 69.67 69.84 69.85 69.45 68.21 66.96 62.51 62.79 63.59 62.51 63.80 67.96 67.57 67.66 66.76 66.58 67.17 67.03 66.57 66.25 66.37 66.47 66.84 66.73
73.57 72.89 72.49 72.50 72.55 72.52 72.16 71.23 70.48 69.72 69.38 69.77 69.88 68.02 66.16 62.89 63.21 63.04 63.49 68.23 68.98 68.21 68.13 67.06 67.27 66.21 66.63 66.97 66.01 66.03 66.24 65.56 65.84
73.30 72.87 72.60 72.50 72.61 72.75 72.41 71.88 70.70 69.96 69.44 69.93 69.33 67.46 65.90 61.08 63.01 63.82 61.77 67.67 67.04 66.41 67.13 67.80 66.46 66.09 66.12 66.30 65.55 65.50 65.56 65.17 65.26
71.99 71.22 71.64 72.47 72.63 72.50 72.35 71.93 71.52 70.51 70.30 69.73 68.56 66.73 65.50 60.12 61.19 62.68 62.15 68.74 67.12 67.23 66.38 66.35 66.13 66.12 65.55 65.40 65.45 65.84 65.72 65.45 65.24
69.68 69.08 69.23 71.25 71.99 72.17 72.25 71.86 71.24 70.00 69.01 68.94 67.73 65.97 61.81 59.14 60.16 61.93 65.32 68.77 68.23 67.70 67.12 66.84 66.86 66.48 66.00 66.06 65.78 65.46 65.23 64.70 64.23
69.43 67.85 67.69 70.13 70.75 70.99 71.80 71.44 70.58 68.65 66.55 65.94 66.44 63.11 60.75 58.99 59.36 61.38 65.94 68.95 68.62 67.96 67.25 66.94 66.66 66.74 66.28 66.08 66.10 65.72 65.22 64.53 63.84
67.90 67.42 67.56 67.56 66.54 69.34 70.12 69.72 68.90 66.62 65.49 64.39 62.91 61.73 59.27 58.83 58.97 61.96 65.50 68.64 68.91 68.54 67.72 67.14 66.87 66.96 66.74 66.47 66.18 65.76 65.45 64.78 64.12
68.20 67.57 67.23 67.06 67.78 69.02 68.58 68.69 67.72 66.23 65.08 63.96 62.76 61.10 59.31 59.02 58.82 59.49 64.44 67.96 69.35 69.04 68.30 67.62 67.46 67.23 66.98 66.60 66.13 65.74 65.33 64.83 64.37
68.30 67.46 67.27 67.66 67.88 68.27 67.63 68.03 67.70 66.71 65.14 64.41 63.29 61.92 60.00 58.89 58.74 58.69 61.87 65.80 69.14 69.91 68.96 68.54 68.11 67.72 67.29 67.01 66.38 65.94 65.57 65.11 64.74
67.25 68.19 67.75 67.77 68.24 68.39 68.23 67.60 67.04 66.59 66.36 65.04 63.59 63.02 61.25 58.95 58.15 58.57 60.10 64.14 66.81 69.40 69.03 69.02 68.66 68.25 67.86 67.45 66.89 66.46 66.15 65.86 65.46
56.99 63.52 67.16 67.93 68.25 68.27 68.32 67.67 67.16 66.23 66.36 65.16 64.35 63.34 61.94 60.33 57.88 58.16 59.84 61.78 63.90 66.30 69.30 69.60 69.14 68.51 68.31 68.04 67.52 67.07 66.69 66.46 66.27
53.21 56.45 61.03 65.39 67.29 67.90 67.71 67.27 66.34 66.03 65.43 64.84 64.93 64.29 63.35 61.84 58.99 58.93 59.62 60.99 62.57 64.05 66.64 68.57 69.30 69.27 68.57 68.51 68.32 67.59 67.79 67.75 67.01
51.67 52.54 55.13 60.57 63.73 65.54 66.67 66.95 66.56 65.62 65.34 64.99 64.89 64.34 63.60 62.80 62.16 59.57 60.20 60.99 61.83 62.19 63.33 64.68 66.15 67.48 68.92 68.61 68.65 68.05 67.97 67.60 68.23
51.01 51.58 52.18 55.46 58.72 61.91 65.05 65.62 66.01 65.81 65.34 64.88 64.55 64.33 63.20 62.38 61.70 60.06 60.31 60.45 60.98 61.42 61.59 62.10 63.19 63.91 67.12 68.54 68.13 68.29 68.63 68.60 68.21
50.18 50.66 50.43 52.77 55.49 56.63 61.47 63.63 63.10 62.73 64.30 63.28 63.15 63.52 62.66 61.00 61.06 60.25 58.88 59.82 60.57 60.98 61.24 61.34 61.99 62.64 64.17 66.35 68.03 68.23 67.85 68.75 68.67
50.18 49.75 49.91 50.29 51.58 53.70 56.82 60.96 60.63 61.45 62.68 60.65 60.38 58.24 60.60 61.11 60.60 60.46 59.18 59.47 60.76 60.39 60.90 61.05 61.45 61.69 61.30 62.02 64.48 66.29 67.34 67.48 67.54
49.69 49.61 49.25 49.18 49.85 50.98 52.82 56.82 58.88 57.48 60.15 61.60 59.37 54.30 54.54 57.74 59.05 59.42 58.66 58.80 58.70 60.37 60.69 60.76 61.44 61.63 61.55 61.62 61.61 62.20 64.53 66.73 67.38
49.69 49.82 49.49 49.13 49.43 49.07 51.14 54.89 57.68 58.94 56.97 60.31 62.06 60.30 55.30 53.97 52.35 56.36 59.10 59.73 59.03 59.33 59.57 60.08 60.72 61.25 61.70 60.60 59.44 59.91 61.73 64.84 66.75
49.20 49.80 49.78 49.59 49.95 50.15 50.52 52.89 54.63 57.35 57.93 57.47 56.34 59.36 58.20 52.92 52.12 51.12 53.73 57.11 59.60 59.83 59.61 59.73 59.50 60.25 61.15 61.51 60.35 59.91 61.78 64.37 65.98